Date String (YYYY-MM-DD hh:mm:ss) UTC,Instrument flags,Ambient pressure (hPa),Sample flow (lpm),Bypass flow (lpm),Sample temperature (°C),Ambient temperature (°C),ASC tube jacket temperature (°C),LED temperature (°C),Box temperature (°C),Sample RH (%),Span deviation,Mass concentration (μg/m³),Mass concentration (μg/m³),Mass concentration (μg/m³)
DateTimeUTC,F1_M11,P_M11,Q1_M11,Q2_M11,T1_M11,T2_M11,T3_M11,T4_M11,T5_M11,U1_M11,ZSPAN_M11,X0_M11,X2_M11,X1_M11
2022-02-02 10:00:00,,0824.4,5.00,0.00,22.1,21.2,00.0,31.1,23.7,07.1,0000.0,0003.02,0001.78,0001.23
2022-02-02 10:01:00,,0824.4,5.01,0.00,22.0,21.0,00.0,31.1,23.6,07.1,0000.0,0003.00,0001.79,0001.24
2022-02-02 10:02:00,,0824.6,4.99,0.00,22.0,20.8,00.0,31.1,23.5,07.1,0000.0,0003.46,0001.84,0001.24
2022-02-02 10:03:00,,0824.4,5.01,0.00,22.0,21.4,00.0,31.1,23.6,07.1,0000.0,0003.44,0001.82,0001.24
2022-02-02 10:04:00,,0824.5,4.99,0.00,22.1,22.3,00.0,31.1,23.9,07.1,0000.0,0003.26,0001.74,0001.23
2022-02-02 10:05:00,,0824.5,5.01,0.00,22.2,22.9,00.0,31.2,24.1,07.0,0000.0,0003.57,0001.73,0001.22
2022-02-02 10:06:00,,0824.5,5.00,0.00,22.3,22.6,00.0,31.2,24.1,07.0,0000.0,0003.92,0001.69,0001.20
2022-02-02 10:07:00,,0824.4,4.99,0.00,22.2,22.1,00.0,31.1,24.0,07.0,0000.0,0003.76,0001.62,0001.16
2022-02-02 10:08:00,,0824.4,5.02,0.00,22.2,21.7,00.0,31.1,23.8,07.0,0000.0,0003.59,0001.58,0001.14
2022-02-02 10:09:00,,0824.5,4.98,0.00,22.1,21.3,00.0,31.1,23.7,07.0,0000.0,0003.39,0001.48,0001.11
2022-02-02 10:10:00,,0824.4,5.01,0.00,22.0,21.0,00.0,31.1,23.6,07.0,0000.0,0003.30,0001.47,0001.09
2022-02-02 10:11:00,,0824.4,4.98,0.00,21.9,20.8,00.0,31.1,23.5,07.0,0000.0,0003.34,0001.44,0001.07
2022-02-02 10:12:00,,0824.4,5.01,0.00,21.9,20.9,00.0,31.0,23.4,07.0,0000.0,0003.37,0001.40,0001.06
2022-02-02 10:13:00,,0824.3,5.01,0.00,22.0,21.8,00.0,31.1,23.6,07.0,0000.0,0002.93,0001.34,0001.04
2022-02-02 10:14:00,,0824.3,4.99,0.00,22.1,22.6,00.0,31.1,24.0,06.9,0000.0,0002.99,0001.35,0001.03
2022-02-02 10:15:00,,0824.4,5.00,0.00,22.2,22.8,00.0,31.1,24.1,06.9,0000.0,0003.28,0001.40,0001.01
2022-02-02 10:16:00,,0824.4,5.00,0.00,22.3,22.5,00.0,31.1,24.1,06.9,0000.0,0003.08,0001.39,0000.99
2022-02-02 10:17:00,,0824.3,5.02,0.00,22.2,22.1,00.0,31.1,24.0,06.8,0000.0,0002.86,0001.42,0000.98
2022-02-02 10:18:00,,0824.4,5.00,0.00,22.2,21.7,00.0,31.1,23.8,06.9,0000.0,0002.94,0001.44,0000.97
2022-02-02 10:19:00,,0824.3,4.99,0.00,22.1,21.4,00.0,31.1,23.7,06.9,0000.0,0002.86,0001.41,0000.96
2022-02-02 10:20:00,,0824.4,5.01,0.00,22.0,21.1,00.0,31.1,23.5,06.9,0000.0,0002.93,0001.39,0000.94
2022-02-02 10:21:00,,0824.4,5.00,0.00,21.9,20.9,00.0,31.1,23.4,06.9,0000.0,0002.87,0001.36,0000.93
2022-02-02 10:22:00,,0824.3,5.01,0.00,21.9,20.9,00.0,31.0,23.4,06.9,0000.0,0002.74,0001.33,0000.91
2022-02-02 10:23:00,,0824.3,5.02,0.00,21.9,21.7,00.0,31.0,23.6,06.9,0000.0,0002.70,0001.33,0000.89
2022-02-02 10:24:00,,0824.3,4.99,0.00,22.1,22.6,00.0,31.1,23.9,06.9,0000.0,0002.76,0001.36,0000.89
2022-02-02 10:25:00,,0824.3,5.01,0.00,22.2,22.9,00.0,31.1,24.0,06.8,0000.0,0002.79,0001.35,0000.87
2022-02-02 10:26:00,,0824.3,5.00,0.00,22.2,22.5,00.0,31.1,24.0,06.8,0000.0,0002.55,0001.31,0000.87
2022-02-02 10:27:00,,0824.3,4.98,0.00,22.2,22.0,00.0,31.1,23.9,06.8,0000.0,0002.40,0001.29,0000.88
2022-02-02 10:28:00,,0824.3,5.01,0.00,22.1,21.7,00.0,31.1,23.8,06.8,0000.0,0002.23,0001.26,0000.87
2022-02-02 10:29:00,,0824.3,4.98,0.00,22.1,21.3,00.0,31.1,23.6,06.9,0000.0,0002.22,0001.26,0000.87
2022-02-02 10:30:00,,0824.2,5.01,0.00,22.0,21.0,00.0,31.1,23.5,06.9,0000.0,0002.35,0001.27,0000.86
2022-02-02 10:31:00,,0824.2,5.00,0.00,21.9,20.8,00.0,31.0,23.4,06.9,0000.0,0002.45,0001.30,0000.86
2022-02-02 10:32:00,,0824.2,4.99,0.00,21.9,20.7,00.0,31.0,23.4,06.9,0000.0,0002.55,0001.35,0000.86
2022-02-02 10:33:00,,0824.2,5.00,0.00,21.9,21.4,00.0,31.0,23.5,06.9,0000.0,0002.67,0001.39,0000.87
2022-02-02 10:34:00,,0824.2,5.00,0.00,22.0,22.4,00.0,31.1,23.8,06.9,0000.0,0002.62,0001.37,0000.88
2022-02-02 10:35:00,,0824.3,5.01,0.00,22.2,23.1,00.0,31.1,24.1,06.8,0000.0,0002.69,0001.38,0000.89
2022-02-02 10:36:00,,0824.3,4.99,0.00,22.3,23.0,00.0,31.1,24.2,06.8,0000.0,0002.70,0001.37,0000.89
2022-02-02 10:37:00,,0824.3,5.00,0.00,22.3,22.5,00.0,31.1,24.1,06.8,0000.0,0003.34,0001.37,0000.89
2022-02-02 10:38:00,,0824.3,5.02,0.00,22.2,22.0,00.0,31.1,23.9,06.8,0000.0,0003.51,0001.39,0000.88
2022-02-02 10:39:00,,0824.3,4.99,0.00,22.2,21.7,00.0,31.1,23.8,06.8,0000.0,0003.53,0001.41,0000.89
2022-02-02 10:40:00,,0824.3,5.00,0.00,22.1,21.4,00.0,31.1,23.7,06.8,0000.0,0003.54,0001.42,0000.89
2022-02-02 10:41:00,,0824.3,4.99,0.00,22.0,21.1,00.0,31.1,23.6,06.8,0000.0,0003.48,0001.43,0000.90
2022-02-02 10:42:00,,0824.3,5.02,0.00,22.0,21.0,00.0,31.0,23.5,06.8,0000.0,0003.30,0001.41,0000.91
2022-02-02 10:43:00,,0824.3,4.98,0.00,21.9,20.8,00.0,31.0,23.4,06.9,0000.0,0003.38,0001.41,0000.91
2022-02-02 10:44:00,,0824.3,5.01,0.00,21.8,20.9,00.0,31.0,23.4,06.9,0000.0,0003.46,0001.40,0000.92
2022-02-02 10:45:00,,0824.3,4.99,0.00,21.9,21.8,00.0,31.0,23.6,06.8,0000.0,0003.45,0001.38,0000.90
2022-02-02 10:46:00,,0824.3,5.00,0.00,22.1,22.6,00.0,31.1,23.9,06.8,0000.0,0003.41,0001.38,0000.89
2022-02-02 10:47:00,,0824.3,4.99,0.00,22.2,23.2,00.0,31.1,24.1,06.7,0000.0,0003.33,0001.39,0000.90
2022-02-02 10:48:00,,0824.3,5.01,0.00,22.3,23.0,00.0,31.1,24.2,06.7,0000.0,0002.73,0001.41,0000.90
2022-02-02 10:49:00,,0824.3,5.01,0.00,22.3,22.5,00.0,31.1,24.1,06.7,0000.0,0002.62,0001.37,0000.90
2022-02-02 10:50:00,,0824.3,5.00,0.00,22.2,22.0,00.0,31.1,23.9,06.7,0000.0,0002.77,0001.35,0000.89
2022-02-02 10:51:00,,0824.3,4.99,0.00,22.2,21.7,00.0,31.1,23.8,06.7,0000.0,0002.77,0001.34,0000.88
2022-02-02 10:52:00,,0824.3,5.01,0.00,22.1,21.4,00.0,31.1,23.7,06.7,0000.0,0002.78,0001.34,0000.88
2022-02-02 10:53:00,,0824.3,4.99,0.00,22.0,21.2,00.0,31.1,23.6,06.8,0000.0,0002.82,0001.36,0000.88
2022-02-02 10:54:00,,0824.3,5.00,0.00,22.0,21.1,00.0,31.1,23.5,06.8,0000.0,0002.69,0001.31,0000.87
2022-02-02 10:55:00,,0824.3,5.00,0.00,21.9,20.9,00.0,31.0,23.5,06.8,0000.0,0002.51,0001.28,0000.86
2022-02-02 10:56:00,,0824.3,4.99,0.00,21.9,20.9,00.0,31.0,23.4,06.8,0000.0,0002.54,0001.30,0000.86
2022-02-02 10:57:00,,0824.3,5.01,0.00,21.9,21.6,00.0,31.0,23.6,06.8,0000.0,0002.75,0001.29,0000.87
2022-02-02 10:58:00,,0824.3,5.00,0.00,22.1,22.4,00.0,31.1,23.8,06.8,0000.0,0002.87,0001.27,0000.86
2022-02-02 10:59:00,,0824.3,5.01,0.00,22.2,22.9,00.0,31.1,24.1,06.7,0000.0,0002.72,0001.21,0000.86
